Tracking 27380 objects as of 6-Jun-2023
HD Live streaming from Space Station
objects crossing your sky now

ONEWEB-0238

Track ONEWEB-0238 now!
10-day predictions
ONEWEB-0238 is classified as:


NORAD ID: 48784
Int'l Code: 2021-045T
Perigee: 1,207.4 km
Apogee: 1,210.4 km
Inclination: 87.9 °
Period: 109.5 minutes
Semi major axis: 7579 km
RCS: Unknown
Launch date: May 28, 2021
Source: United Kingdom (UK)
Launch site: VOSTOCHNY COSMODROME (VOSTO)
Your satellite tracking list
Your tracking list is empty




NASA's NSSDC Master Catalog

Two Line Element Set (TLE):
1 48784U 21045T   23156.84159938 -.00000113  00000-0 -33300-3 0  9996
2 48784  87.9009 119.7084 0001933  83.7475 276.3876 13.15552101 98781
Source of the keplerian elements: AFSPC